STARLINK-34392

Last updated on Thu Jul 03 2025 00:02:07 GMT+0000 (Coordinated Universal Time)

1 64451U 25130P 25183.58335648 -.00843764 00000+0 -61873-2 0 9992 2 64451 53.1560 179.7573 0001144 60.7182 67.3867 15.74814809 3529
UTC large
Height (km)
Speed (km/s)
/
Latitude / Longitude
Inclination (degrees)
Orbital Period (minutes)
Azimuth
Elevation
Range (km)
Doppler Factor

Next 0 passes for location: London (51.5072 / 0.1276)

Sorry there are no passes over London.